Weather in Glukhovo

Russia / Kaluga Oblast     55°03′03″N   36°02′50″E
В апреле 2022 года жителям России запретили посещать сайт meteo.paraplan.net по решению Генеральной прокуратуры. Аудитория сайта уменьшилась в 10 раз. Владельцы сайта не видят смысла в поддержке погодного сервера в таких условиях. Сайт будет закрыт в октябре.
temp.,
°C
wind,
m/s
gust,
m/s
humid.,
%
clouds,
%
prec.,
mm/h
press.,
hPa
HPBL,
m
25 september, sun
sun2500:00+6wnw4995100 0.9 999667
03:00+6wnw41096100 2.1 999639
06:00+6wnw51095100 0.9 1000656
09:00+6wnw51096100 1.3 1001623
12:00+7wnw5995100 1.6 1002590
15:00+7wnw3896100 3.3 1004598
18:00+6wnw5995100 1.3 1005702
21:00+6wnw4896100 1.6 1007506
26 september, mon
mon2600:00+6w3796100 0.0 1008463
03:00+6w3796100 0.1 1008468
06:00+6w3796100 0.1 1009527
09:00+7w3793100 0.1 1010517
12:00+8w4790100 0.1 1011620
15:00+10wnw4874100 0.2 10111150
18:00+9w2382100 0.1 101177
21:00+7wsw2487100 0.1 101293
27 september, tue
tue2700:00+7sw2587100 0.0 1011109
03:00+7sw2487100 0.0 1011101
06:00+7sw2388100 0.1 101174
09:00+8ssw2486100 0.1 1011149
12:00+8sse2489100 0.4 1011191
15:00+9ene128797 0.7 101162
18:00+9ne3691100 0.0 1011185
21:00+6e3595100 0.0 101087
28 september, wed
wed2800:00+6e31192100 0.0 1010318
03:00+7e41388100 0.0 1008458
06:00+7ene51293100 0.9 1006587
09:00+7ene61397100 4.4 1004561
12:00+8e51197100 3.2 1002523
15:00+9e4998100 3.8 1001394
18:00+10e3899100 0.3 1001361
21:00+10ese3799100 0.3 1001334
29 september, thu
thu2900:00+10sse2699100 0.1 1002275
03:00+10wsw499499 0.1 1004416
06:00+9wsw489499 0.0 1006502
09:00+9wsw3790100 0.0 1009679
12:00+11w467891 0.0 1011824
15:00+13w357299 0.0 1013945
18:00+10ene1182100 0.0 101510
21:00+10ese2386100 0.0 101760